Regional Weather Roundup
Issued by NWS

Home | Current Version | Previous Version | Graphics & Text | Print | Product List | Glossary On
Versions: 1 2 3 4 5 6 7 8 9 10 11 12 13 14 15 16 17 18 19 20 21 22 23 24 25 26 27 28 29 30 31 32 33 34 35 36 37 38 39 40 41 42 43 44 45 46 47 48 49 50
000
ASUS43 KOAX 280002
RWRNE

WEATHER ROUNDUP FOR NEBRASKA
NATIONAL WEATHER SERVICE OMAHA NE
700 PM CDT SUN JUL 27 2014

NOTES: SATELLITE DATA IS BEING USED TO AUGMENT CLOUD COVER ABOVE
       12000 FEET.
       "FAIR" INDICATES FEW OR NO CLOUDS BELOW 12,000 FEET WITH NO
       SIGNIFICANT WEATHER AND/OR OBSTRUCTIONS TO VISIBILITY.

  * THESE STATIONS DO NOT REPORT WEATHER SUCH AS RAIN...SNOW OR FOG.

NEZ001>004-019>022-054>056-280100-
NEBRASKA PANHANDLE

CITY           SKY/WX    TMP DP  RH WIND       PRES   REMARKS
SCOTTSBLUFF    SUNNY     85  52  32 MISG      30.26F
6HR MIN TEMP:  78; 6HR MAX TEMP:  87;

ALLIANCE       MOSUNNY   86  46  24 E8        30.26F
6HR MIN TEMP:  80; 6HR MAX TEMP:  87;

CHADRON        SUNNY     84  50  30 NE16      30.23F
6HR MIN TEMP:  79; 6HR MAX TEMP:  89;

KIMBALL        MOSUNNY   82  47  29 SE12      30.30S
SIDNEY         SUNNY     86  43  22 VRB3      30.30F
6HR MIN TEMP:  80; 6HR MAX TEMP:  88;

$$

NEZ057>060-069>072-079>082-280100-
SOUTHWEST NEBRASKA

CITY           SKY/WX    TMP DP  RH WIND       PRES   REMARKS
NORTH PLATTE   SUNNY     84  49  29 N13       30.21S
6HR MIN TEMP:  82; 6HR MAX TEMP:  87;

IMPERIAL       SUNNY     86  46  24 N6        30.25S
6HR MIN TEMP:  82; 6HR MAX TEMP:  88; 6HR PCP: TRACE;

LEXINGTON      SUNNY     83  52  34 N9        30.19F
MCCOOK         SUNNY     88  48  25 N5        30.20F
6HR MIN TEMP:  85; 6HR MAX TEMP:  91;

OGALLALA       MOSUNNY   84  46  26 SE6       30.24S
$$

NEZ005>010-023>029-035>040-094-280100-
NORTH CENTRAL NEBRASKA

CITY           SKY/WX    TMP DP  RH WIND       PRES   REMARKS
VALENTINE      SUNNY     81  50  33 N14       30.22F
6HR MIN TEMP:  79; 6HR MAX TEMP:  84;

AINSWORTH      SUNNY     78  50  37 N12G22    30.22S
BROKEN BOW     SUNNY     82  50  32 N13       30.20S
6HR MIN TEMP:  79; 6HR MAX TEMP:  85;

O`NEILL        SUNNY     79  47  32 N14       30.19S
ORD            SUNNY     81  55  40 N9        30.16F
6HR MIN TEMP:  81; 6HR MAX TEMP:  85;

THEDFORD       SUNNY     83  48  29 N12G17    30.24S
$$

NEZ041-046>049-061>064-073>077-083>087-280100-
SOUTH CENTRAL NEBRASKA

CITY           SKY/WX    TMP DP  RH WIND       PRES   REMARKS
GRAND ISLAND   SUNNY     84  56  38 N13       30.17S
6HR MIN TEMP:  82; 6HR MAX TEMP:  87;

AURORA         SUNNY     81  61  50 NE8       30.16S
HASTINGS       SUNNY     82  52  35 N12       30.17S
6HR MIN TEMP:  82; 6HR MAX TEMP:  86;

HEBRON         SUNNY     83  51  33 N8        30.14S
HOLDREGE       SUNNY     82  56  40 CALM      30.18F
KEARNEY *      SUNNY     84  50  30 N13       30.18F
YORK           SUNNY     81  59  47 N13G18    30.15S THUNDER
$$

NEZ011>018-030>034-042>045-280100-
NORTHEAST NEBRASKA

CITY           SKY/WX    TMP DP  RH WIND       PRES   REMARKS
NORFOLK        SUNNY     78  57  48 N15       30.15S
6HR MIN TEMP:  78; 6HR MAX TEMP:  82;

ALBION         SUNNY     78  52  40 N12G17    30.17R
BLAIR          SUNNY     76  55  47 NW14G25   30.12R
COLUMBUS *     SUNNY     79  57  47 N10       30.15S
FREMONT        SUNNY     78  56  46 N10G18    30.13S
WAYNE          SUNNY     76  59  55 N10G18    30.15S
$$

NEZ050>053-065>068-078-088>093-280100-
SOUTHEAST NEBRASKA

CITY           SKY/WX    TMP DP  RH WIND       PRES   REMARKS
LINCOLN        SUNNY     82  56  40 N17       30.13S
6HR MIN TEMP:  82; 6HR MAX TEMP:  87;

OMAHA EPPLEY   MOSUNNY   79  56  45 N17       30.10S
6HR MIN TEMP:  79; 6HR MAX TEMP:  84;

BEATRICE       SUNNY     81  60  48 N15       30.12S
NEBRASKA CITY  SUNNY     78  54  42 N15       30.11S
PLATTSMOUTH    SUNNY     78  54  43 N10G17    30.11S
$$

NEZ044-045-051>053-067-280100-
OMAHA AREA

CITY           SKY/WX    TMP DP  RH WIND       PRES   REMARKS
OMAHA EPPLEY   MOSUNNY   79  56  45 N17       30.10S
6HR MIN TEMP:  79; 6HR MAX TEMP:  84;

BLAIR          SUNNY     76  55  47 NW14G25   30.12R
FREMONT        SUNNY     78  56  46 N10G18    30.13S
MILLARD        MOSUNNY   78  58  48 N6G16     30.11S
OFFUTT AFB     MOSUNNY   79  58  48 N13       30.10R
PLATTSMOUTH    SUNNY     78  54  43 N10G17    30.11S
WAHOO          FAIR      78  56  46 N12       30.13R
$$


USA.gov is the U.S. government's official web portal to all federal, state and local government web resources and services.